This is the latest recevied weather packets stored in our database for station/object OE3BCB-14. If no packets are shown the sender has not sent any weather packets the latest 10 day(s).
| Time | Temp. | Humidity | Pressure | Rain* | Wind** | Luminosity | Snow |
|---|---|---|---|---|---|---|---|
| 1777734752 | 35.56° C | 14% | 1022.3 hPa | - | - | 103 W/m² | - |
| 1777734450 | 35° C | 15% | 1022.3 hPa | - | - | 101 W/m² | - |
| 1777734148 | 35° C | 15% | 1022.3 hPa | - | - | 99 W/m² | - |
| 1777733845 | 36.11° C | 14% | 1022.4 hPa | - | - | 97 W/m² | - |
| 1777733543 | 35.56° C | 15% | 1022.5 hPa | - | - | 97 W/m² | - |
| 1777733240 | 36.67° C | 15% | 1022.6 hPa | - | - | 95 W/m² | - |
| 1777732938 | 36.67° C | 14% | 1022.6 hPa | - | - | 95 W/m² | - |
| 1777732635 | 35.56° C | 15% | 1022.6 hPa | - | - | 97 W/m² | - |
| 1777732333 | 38.33° C | 14% | 1022.6 hPa | - | - | 102 W/m² | - |
| 1777732031 | 37.22° C | 15% | 1022.7 hPa | - | - | 108 W/m² | - |
| 1777731728 | 35.56° C | 15% | 1022.7 hPa | - | - | 120 W/m² | - |
| 1777731426 | 36.11° C | 15% | 1022.8 hPa | - | - | 141 W/m² | - |
| 1777731123 | 36.11° C | 15% | 1022.9 hPa | - | - | 174 W/m² | - |
| 1777730519 | 36.67° C | 15% | 1023 hPa | - | - | 190 W/m² | - |
| 1777730216 | 36.11° C | 16% | 1023 hPa | - | - | 172 W/m² | - |
| 1777729914 | 37.22° C | 15% | 1023.2 hPa | - | - | 84 W/m² | - |
| 1777729612 | 36.67° C | 16% | 1023.2 hPa | - | - | 62 W/m² | - |
| 1777729309 | 35.56° C | 16% | 1023.2 hPa | - | - | 56 W/m² | - |
| 1777729006 | 36.67° C | 17% | 1023.3 hPa | - | - | 56 W/m² | - |
| 1777728704 | 35.56° C | 16% | 1023.3 hPa | - | - | 58 W/m² | - |
| 1777728402 | 34.44° C | 17% | 1023.3 hPa | - | - | 60 W/m² | - |
| 1777728099 | 35.56° C | 16% | 1023.5 hPa | - | - | 55 W/m² | - |
| 1777727797 | 33.33° C | 17% | 1023.5 hPa | - | - | 58 W/m² | - |
| 1777727494 | 34.44° C | 17% | 1023.6 hPa | - | - | 75 W/m² | - |
| 1777727192 | 35.56° C | 17% | 1023.8 hPa | - | - | 47 W/m² | - |
* Rain since midnight (hover to see other rain measurements)
** Current wind speed in m/s (hover to see current wind gust speed)